Home > Weather > Santorini > Past weeks

Flag for Greece Weather for the Past 2 Weeks in Santorini, Greece

Now
72 °F

Sunny.


Feels Like: 76 °F
Forecast: 65 / 68 °F
Wind: 7 mph from Northeast

Location: Santorini Island

Current Time: Apr 29, 2016 at 3:19:59 PM

Latest Report: Apr 29, 2016 at 2:50 PM


Visibility: 10 mi

Pressure: 29.98 "Hg

Humidity: 61%

Dew Point: 57 °F

Location of SantoriniLocation

Historic Weather in Santorini — Graph

°F

Santorini Temperature Yesterday

Maximum temperature yesterday: 70 °F (at 1:50 PM)
Minimum temperature yesterday: 57 °F (at 6:50 AM)
Average temperature yesterday: 65 °F

High & Low Weather Summary for the Past Weeks

 TemperatureHumidityPressure
High86 °F (Apr 20, 12:20 PM)94% (Apr 20, 3:20 AM)30.15 "Hg (Apr 20, 3:20 AM)
Low54 °F (Apr 17, 5:20 AM)15% (Apr 15, 1:50 AM)29.59 "Hg (Apr 26, 5:20 AM)
Average66 °F60%29.94 "Hg
* Reported Apr 14 1:20 PM — Apr 29 1:50 PM, Santorini, Weather by CustomWeather, © 2016

Note: Actual official high and low records may vary slightly from our data, if they occured in-between our weather recording intervals... More about our weather records

Advertising

Santorini Weather History for the Previous 24 Hours

Scroll right to see more
 ConditionsComfort  
Time TempWeatherWind HumidityBarometerVisibility
1:50 PM
Fri, Apr 29
72 °FPassing clouds.7 mph61%29.98 "HgN/A
12:50 PM72 °FPassing clouds.6 mph53%29.98 "HgN/A
12:20 PM72 °FPassing clouds.6 mph47%30.01 "HgN/A
11:50 AM72 °FPassing clouds.5 mph47%30.01 "HgN/A
11:20 AM72 °FSunny.No wind50%30.01 "Hg10 mi
10:50 AM72 °FSunny.No wind50%30.01 "Hg10 mi
10:20 AM72 °FSunny.No wind50%30.01 "Hg10 mi
9:50 AM70 °FSunny.No wind50%30.01 "Hg10 mi
9:20 AM70 °FSunny.No wind43%30.01 "Hg10 mi
8:50 AM68 °FSunny.No wind56%30.01 "Hg10 mi
8:20 AM66 °FSunny.No wind56%30.01 "Hg10 mi
7:50 AM66 °FSunny.No wind49%30.01 "Hg10 mi
6:50 AM59 °FClear.No wind59%30.01 "Hg10 mi
6:20 AM59 °FClear.No wind63%30.01 "Hg10 mi
5:20 AM57 °FClear.No wind67%29.98 "Hg10 mi
4:50 AM57 °FCool.1 mph67%30.01 "HgN/A
3:50 AM57 °FCool.3 mph63%30.01 "HgN/A
3:20 AM57 °FRefreshingly cool.3 mph59%30.01 "HgN/A
2:50 AM57 °FRefreshingly cool.3 mph59%30.01 "HgN/A
1:50 AM57 °FRefreshingly cool.2 mph59%30.01 "HgN/A
12:50 AM59 °FClear.No wind55%30.04 "Hg10 mi
12:20 AM59 °FClear.3 mph51%30.01 "Hg10 mi
11:50 PM
Thu, Apr 28
59 °FClear.No wind55%30.04 "Hg10 mi
11:20 PM59 °FClear.No wind55%30.04 "Hg10 mi
10:50 PM59 °FClear.No wind59%30.04 "Hg10 mi
10:20 PM59 °FClear.No wind63%30.04 "Hg10 mi
9:50 PM61 °FClear.3 mph55%30.04 "Hg10 mi
9:20 PM63 °FClear.3 mph59%30.04 "Hg10 mi
8:50 PM63 °FSunny.3 mph56%30.04 "Hg10 mi
8:20 PM66 °FSunny.No wind56%30.01 "Hg10 mi
7:50 PM66 °FSunny.No wind56%30.01 "Hg10 mi
7:20 PM68 °FSunny.No wind53%30.01 "Hg10 mi
6:50 PM68 °FSunny.3 mph56%30.01 "Hg10 mi
6:20 PM68 °FSunny.3 mph56%30.01 "Hg10 mi
5:50 PM70 °FSunny.3 mph53%30.01 "Hg10 mi
5:20 PM70 °FSunny.3 mph46%30.01 "Hg10 mi
4:50 PM70 °FSunny.3 mph50%30.01 "Hg10 mi
4:20 PM70 °FSunny.6 mph53%30.01 "Hg10 mi
3:50 PM70 °FSunny.6 mph57%30.04 "Hg10 mi
3:20 PM70 °FSunny.6 mph57%30.04 "Hg10 mi
Weather by CustomWeather, © 2016

See weather overviewHow to use our weather pages